Temperature
30 30 30 30 30 30 30 31 31 31 31 31 31 31 29 28 27 26 25 24 24 23 22 22 22 21 21 21 21 21 20 20 19 19 19 19 19 18 18 18 18 18 17 17
28 29 30 29 30 30 30 31 31 31 31 31 30 29 28 27 26 26 25 24 23 23 22 22 21 21 21 21 21 21 20 20 20 19 19 19 19 18 18 18 18 18 17 17
28 29 29 28 30 30 30 30 31 31 31 30 29 29 28 27 26 25 25 24 23 22 22 22 22 21 21 21 21 21 21 20 20 20 19 19 19 18 18 18 18 18 17 17
28 27 27 29 30 30 30 30 30 30 30 30 29 28 27 26 26 25 24 24 23 23 22 22 22 21 21 21 21 21 21 20 20 19 19 19 19 19 19 18 18 18 17 17
27 27 28 28 28 29 29 29 29 29 29 29 27 28 27 25 25 24 24 24 23 23 22 22 21 21 21 21 21 21 21 21 20 20 19 19 19 19 18 18 18 17 17 17
26 27 27 28 28 28 28 28 28 28 28 27 27 29 28 25 24 24 23 23 23 22 22 22 22 21 21 21 21 21 21 21 20 20 19 19 19 19 18 18 17 17 16 16
26 26 27 27 27 27 27 27 27 27 27 26 27 27 26 24 23 23 23 22 22 22 22 22 21 21 21 21 21 21 21 20 20 20 19 19 19 18 18 17 17 17 16 16
26 26 26 25 26 27 26 25 25 25 25 25 25 24 23 23 22 22 22 22 22 21 21 21 21 21 21 21 21 21 20 20 20 19 19 18 18 18 18 17 17 16 16 15
25 25 24 23 24 24 23 24 24 24 24 24 23 23 22 22 21 21 21 21 21 21 21 21 21 21 21 21 20 20 20 20 19 19 19 18 18 18 17 17 16 16 16 15
23 23 23 22 22 22 22 22 22 23 23 23 22 22 21 21 20 20 20 20 20 20 20 20 20 20 20 20 20 20 20 19 19 18 18 18 17 17 17 17 16 16 16 15
22 22 22 22 22 21 21 21 21 22 22 22 22 21 21 20 20 20 20 20 20 19 19 20 20 20 19 19 19 19 19 19 18 18 18 17 17 17 17 17 17 16 16 16
23 22 22 22 21 20 20 20 21 21 21 21 21 20 20 20 19 19 19 19 19 19 19 19 19 19 19 18 18 18 18 18 17 17 17 17 17 17 17 17 16 16 16 16
20 20 20 20 20 20 20 20 20 20 20 20 20 20 19 19 19 19 19 18 18 18 18 18 18 18 18 18 18 18 18 17 17 17 17 17 17 17 16 16 16 16 16 16
18 18 19 19 19 19 19 19 19 19 19 19 19 19 18 18 18 18 18 18 18 18 18 18 18 17 17 17 17 17 17 17 17 17 17 17 17 16 16 16 16 16 16 15
17 18 18 18 18 18 18 18 18 18 18 18 18 18 17 18 17 17 17 17 17 17 17 17 17 17 17 17 17 17 16 16 16 16 16 16 16 16 16 16 15 15 15 15
17 17 17 17 17 17 17 18 18 18 18 17 17 17 17 17 17 17 17 17 17 17 17 17 17 17 17 16 16 16 16 16 16 16 16 16 16 16 16 15 15 15 15 14
16 17 17 17 17 17 17 17 17 17 17 17 16 16 16 16 16 16 16 16 16 16 16 16 16 16 16 16 16 16 16 16 16 16 16 16 15 15 15 15 15 15 14 14
16 16 16 16 16 16 16 16 16 16 16 16 16 15 15 15 15 15 15 15 15 15 15 15 15 15 16 16 16 16 16 16 15 15 15 15 15 15 15 14 14 14 14 14
15 16 16 16 16 16 16 16 15 15 15 15 15 15 15 15 15 15 15 15 15 15 15 15 15 15 15 15 15 15 15 15 15 15 15 14 14 14 14 14 14 14 14 13
15 15 15 15 15 15 15 15 15 15 15 15 15 15 14 14 14 14 14 14 14 14 14 14 14 14 14 15 15 15 15 15 15 14 14 14 14 14 14 14 14 14 13 13
14 14 14 14 14 14 15 14 14 14 14 14 14 14 14 14 14 14 14 14 14 14 14 14 14 14 14 14 14 14 14 14 14 14 14 14 14 14 13 13 13 13 13 13
13 13 13 14 14 14 14 14 14 14 14 14 14 14 14 14 14 13 14 14 14 14 14 14 14 14 14 14 14 14 14 14 14 14 14 13 13 13 13 13 13 12 12 12
13 13 13 13 13 13 13 13 13 13 13 13 13 13 13 13 13 13 13 14 14 14 13 13 13 13 13 13 13 13 13 13 13 13 13 13 13 13 13 12 12 12 12 12
13 13 13 13 13 13 13 13 13 13 13 13 13 13 13 13 13 13 13 13 13 13 13 13 13 13 13 13 13 13 13 13 13 13 13 13 13 12 12 12 12 12 12 11
12 12 12 12 12 13 13 12 12 13 13 13 13 13 13 13 13 13 13 13 12 12 12 12 13 13 13 13 13 13 13 13 13 13 13 12 12 12 12 12 12 11 11 11
12 12 12 12 12 12 13 13 13 13 13 13 13 13 12 12 12 12 12 12 12 12 12 12 12 12 12 12 12 12 12 12 12 12 12 12 12 12 11 11 11 11 11 10
12 12 12 12 12 12 12 12 12 12 12 12 12 12 12 12 12 12 11 12 12 12 12 12 12 12 12 12 12 12 12 12 12 12 12 11 11 11 11 11 11 10 10 10
Wind_Speed
14 11 13 15 17 17 17 16 14 11 9 7 7 8 8 9 10 11 12 12 13 12 12 11 11 10 10 10 9 9 9 9 9 8 7 6 6 5 4 4 4 3 3 2
15 14 14 15 16 17 17 16 15 12 9 5 5 7 8 9 10 11 12 12 12 12 12 11 11 11 10 10 10 9 9 9 9 8 8 7 7 6 5 5 4 4 3 3
16 15 15 18 17 17 15 14 14 13 9 6 7 8 9 10 11 11 11 11 11 11 11 11 11 10 10 10 10 10 10 9 9 9 9 8 8 7 6 6 5 4 4 3
13 14 19 12 10 13 14 13 12 10 7 7 7 7 7 8 10 10 10 11 10 10 11 11 11 10 10 10 10 10 10 10 10 10 9 9 8 8 7 5 5 5 4 4
13 17 16 11 10 12 13 12 10 10 7 6 5 7 6 7 8 9 9 9 9 9 10 11 11 11 10 10 10 10 10 10 10 10 10 9 9 8 7 6 6 5 5 5
13 17 17 11 9 9 11 13 9 9 8 8 8 9 6 7 8 8 8 8 8 8 9 10 11 11 11 10 10 10 9 9 10 10 10 10 9 8 7 6 6 5 5 5
15 14 11 5 7 9 13 9 6 7 7 8 8 5 1 5 7 7 7 8 8 8 8 9 10 11 10 10 10 9 8 8 8 9 9 9 8 7 7 6 6 5 5 5
14 15 11 4 8 9 4 1 3 5 6 6 5 3 3 4 6 7 7 8 8 8 7 8 10 10 10 9 8 8 8 8 8 9 8 8 8 8 7 7 6 6 6 5
8 6 3 4 4 2 1 2 2 3 5 6 5 5 4 4 5 6 7 7 7 7 7 7 8 9 9 8 8 8 7 8 8 8 8 8 8 8 8 7 6 6 6 5
5 4 3 3 3 2 1 2 2 4 5 5 5 5 5 4 5 5 6 7 7 7 7 6 6 7 7 7 8 8 8 7 7 7 7 7 7 7 7 7 7 6 6 5
6 5 4 4 3 2 1 1 2 2 3 4 5 5 5 5 5 5 5 6 6 7 6 6 6 6 7 7 8 8 8 7 7 8 7 7 7 6 7 6 5 6 6 5
5 4 4 3 3 2 1 1 2 2 2 3 4 4 4 4 4 4 5 5 5 5 5 5 6 5 6 7 8 8 7 7 7 7 7 7 7 6 5 5 4 5 4 5
4 4 3 3 3 3 2 1 1 2 3 3 3 4 4 4 4 4 5 5 5 5 4 4 5 5 5 6 7 8 8 7 7 7 7 7 7 7 6 6 7 8 8 8
4 3 3 3 2 1 1 1 1 2 2 3 3 4 4 4 4 4 4 5 4 4 4 4 4 4 4 5 6 7 8 7 7 7 7 7 6 7 6 6 6 6 8 11
4 4 4 3 2 2 2 2 3 3 3 3 3 3 3 4 4 4 4 4 4 4 4 4 3 3 3 4 4 6 7 6 6 6 6 6 6 6 6 7 6 6 5 6
3 3 4 4 4 3 3 3 3 3 3 4 3 3 3 3 4 4 4 4 4 3 3 3 2 2 2 3 4 5 5 5 6 6 6 6 6 6 6 6 6 6 6 5
4 4 4 4 5 4 4 3 3 3 3 3 3 3 3 4 4 3 3 3 2 2 2 2 2 2 3 4 5 4 4 5 6 6 5 5 5 6 6 6 6 6 6 5
3 4 4 5 5 4 4 3 3 3 3 3 3 3 3 3 3 3 2 2 2 1 0 1 1 2 3 3 4 3 3 3 4 4 4 4 4 5 5 5 6 6 5 5
2 3 3 4 4 4 4 3 3 3 3 3 3 3 3 3 2 2 2 2 1 1 1 1 1 2 2 2 3 3 3 3 3 3 4 4 4 4 5 5 6 6 6 5
2 2 2 2 3 4 3 3 3 3 3 3 3 3 3 2 2 2 1 1 1 2 2 1 1 1 2 2 3 3 3 3 3 3 4 4 5 5 5 5 6 6 6 6
2 2 1 1 2 3 3 3 2 3 3 3 3 3 3 3 3 3 3 2 2 2 2 3 3 2 2 2 4 3 3 3 3 4 4 5 5 5 5 5 5 5 5 5
2 1 1 1 2 2 3 2 2 3 3 3 3 3 3 4 4 3 3 3 3 3 3 3 2 1 1 3 3 3 3 3 3 4 4 4 5 5 5 5 5 5 5 6
2 1 1 0 1 1 1 2 2 3 3 3 3 3 3 3 3 3 3 2 2 2 3 2 1 0 3 4 3 4 4 5 5 5 5 5 5 5 5 6 6 6 6 5
1 1 1 1 2 2 2 2 2 2 2 2 3 3 3 3 2 2 2 2 2 2 3 2 2 3 6 4 4 4 4 5 6 6 6 5 5 5 5 6 6 5 6 6
0 0 1 2 2 2 2 2 2 2 2 1 2 2 2 2 1 1 1 2 2 3 3 3 5 6 6 4 4 4 5 5 5 5 5 6 6 6 6 6 6 5 5 6
1 1 1 1 1 1 1 1 1 1 1 1 1 1 1 1 1 1 2 2 3 3 3 3 3 4 4 4 4 5 5 5 5 5 5 5 6 6 5 5 6 5 5 5
1 1 1 1 1 1 1 1 1 1 1 1 1 1 1 1 1 1 2 2 2 2 2 3 3 3 3 3 4 4 4 4 4 4 4 4 4 4 4 4 3 3 4 5
Wind_Direction
231 224 210 214 214 214 225 234 239 234 235 221 201 190 181 174 172 172 172 176 178 180 177 176 176 177 180 181 180 178 179 183 184 184 184 182 184 186 187 187 181 172 168 160
222 219 215 219 218 217 224 232 238 242 235 215 198 186 183 183 179 179 178 179 179 181 179 180 180 181 181 182 181 179 183 184 179 179 181 183 184 184 183 185 185 177 179 174
217 214 217 221 217 215 219 226 234 236 235 196 197 199 195 190 187 186 183 181 182 183 183 182 183 182 184 182 178 180 184 184 180 181 183 184 186 185 186 186 184 185 186 186
217 211 224 220 215 220 222 227 233 241 239 217 210 202 196 195 191 188 185 182 183 184 183 182 179 180 181 178 178 181 184 185 184 185 185 184 187 189 190 188 184 186 188 189
219 218 220 214 212 216 220 229 232 235 229 213 199 183 190 192 190 189 185 182 181 183 182 178 176 175 175 178 179 183 186 188 187 187 186 186 189 190 188 188 187 189 188 190
219 224 223 215 205 216 222 228 226 224 220 208 200 212 204 182 181 180 178 173 172 173 173 173 174 172 174 177 180 187 189 189 187 186 187 188 189 189 187 188 193 195 190 191
219 223 222 201 190 197 214 222 209 209 209 203 211 237 174 156 167 169 170 168 165 167 171 173 171 171 176 180 186 186 183 182 184 186 187 187 184 183 182 186 191 199 197 195
218 223 214 164 189 203 213 172 191 198 199 200 200 189 156 154 161 167 170 168 166 164 166 169 171 174 178 183 181 176 175 178 184 188 191 184 181 181 183 186 191 199 200 206
219 217 122 167 199 195 211 212 214 210 202 193 195 188 175 163 163 169 174 172 170 166 162 165 173 176 178 178 174 174 175 181 186 189 191 187 186 184 185 189 202 205 207 211
206 197 191 190 207 199 212 229 237 222 205 194 191 183 175 167 161 167 171 170 167 165 165 166 170 179 181 175 175 178 178 180 186 187 190 189 193 193 195 196 205 211 215 219
211 211 210 211 206 204 220 233 227 219 207 192 180 181 174 166 161 165 166 168 168 172 170 169 168 175 180 177 179 183 183 185 191 192 193 193 195 202 206 209 214 220 221 221
216 205 218 218 219 226 231 236 226 197 187 182 174 171 166 161 155 160 162 160 164 169 168 166 168 173 178 180 182 185 190 195 202 200 194 199 198 201 195 214 181 200 240 252
247 245 246 248 242 241 236 231 218 195 179 163 153 153 152 147 147 150 153 155 159 162 160 161 169 177 180 181 186 192 199 200 206 206 202 205 206 209 209 204 201 210 217 223
243 241 242 231 218 203 198 187 168 160 149 135 140 142 138 136 138 145 151 154 153 154 158 163 169 178 183 184 191 200 206 202 209 208 208 208 211 216 220 222 219 223 214 212
231 229 229 216 191 165 157 147 138 132 126 123 127 131 134 141 144 147 147 146 155 163 166 169 170 181 190 188 197 206 207 207 210 213 212 213 216 222 226 228 232 232 225 201
209 198 195 191 184 169 155 148 141 136 133 126 124 123 127 133 137 143 147 156 164 169 171 179 184 188 197 196 203 208 206 196 205 213 213 213 216 224 228 228 231 234 234 228
199 191 187 189 186 177 167 157 145 142 135 129 129 126 127 129 128 132 135 134 138 152 176 190 194 190 198 206 215 210 198 185 194 212 214 217 223 228 230 231 234 236 238 221
207 207 199 190 184 177 171 163 153 147 135 129 134 133 134 139 137 127 115 109 110 109 332 251 218 209 209 212 209 208 200 189 198 212 216 221 229 232 236 237 238 241 240 214
179 190 190 186 189 183 174 168 157 145 142 147 151 147 144 145 139 132 128 138 152 207 267 261 249 229 224 205 206 204 205 202 206 217 225 214 228 237 239 240 240 239 238 232
124 134 155 175 180 173 162 159 160 159 160 160 157 155 152 155 156 153 164 229 258 252 222 225 231 255 241 209 230 210 206 210 220 225 231 233 235 239 243 245 245 242 239 234
103 102 120 172 179 166 155 155 170 176 173 180 180 179 178 185 192 194 211 232 243 248 238 217 222 227 228 226 228 232 224 228 236 239 241 243 245 247 248 249 249 248 246 242
94 93 97 184 172 161 151 159 189 194 187 187 193 197 198 208 214 220 238 252 255 254 247 240 227 167 250 262 240 247 246 238 243 249 251 255 256 254 250 251 253 253 250 248
109 113 137 184 173 173 169 180 202 201 194 198 206 212 220 233 239 241 251 251 249 263 272 281 308 147 253 250 247 245 251 252 250 248 250 255 259 259 255 252 253 255 254 252
123 141 194 214 201 200 204 206 210 206 208 220 220 223 226 227 238 244 249 218 236 259 275 278 202 234 247 246 250 250 252 254 255 256 259 258 258 257 258 257 256 254 252 251
319 268 228 203 203 209 193 187 194 206 218 219 217 211 223 231 246 269 265 253 237 244 259 237 217 232 243 252 252 255 257 261 267 273 272 270 267 263 260 258 257 253 249 248
210 259 287 262 263 252 231 225 231 229 212 208 226 241 241 227 226 243 259 262 263 258 265 260 241 235 250 257 262 266 268 266 264 266 272 272 270 272 270 265 262 260 258 255
210 221 228 235 234 232 235 239 233 227 227 229 269 296 276 258 250 255 268 274 273 267 263 262 260 258 264 266 269 273 278 283 283 282 285 284 279 274 270 270 270 263 260 258
Height
1459 1457 1460 1466 1468 1470 1472 1470 1474 1472 1472 1471 1472 1476 1481 1485 1489 1492 1496 1500 1503 1506 1509 1512 1515 1517 1520 1523 1526 1528 1530 1532 1533 1535 1536 1538 1539 1539 1540 1540 1541 1540 1541 1540
1463 1458 1460 1464 1463 1465 1468 1467 1467 1467 1469 1468 1472 1476 1480 1484 1487 1490 1493 1497 1500 1503 1506 1509 1512 1514 1517 1520 1522 1525 1527 1529 1531 1532 1534 1535 1537 1537 1538 1538 1539 1539 1539 1539
1464 1459 1462 1467 1460 1462 1464 1463 1464 1467 1466 1468 1473 1476 1479 1482 1485 1488 1491 1494 1498 1500 1503 1506 1508 1511 1514 1517 1519 1522 1524 1526 1528 1530 1531 1533 1534 1535 1536 1536 1537 1537 1537 1538
1460 1466 1477 1459 1452 1455 1459 1460 1461 1462 1464 1467 1471 1475 1478 1481 1483 1486 1489 1492 1495 1498 1500 1503 1506 1509 1512 1515 1517 1519 1521 1523 1525 1527 1529 1530 1531 1532 1533 1534 1535 1535 1535 1536
1459 1464 1462 1457 1455 1455 1460 1462 1460 1462 1464 1467 1471 1473 1476 1479 1481 1484 1487 1490 1493 1495 1498 1500 1503 1506 1509 1512 1514 1516 1518 1520 1522 1524 1526 1527 1528 1529 1530 1531 1532 1532 1533 1533
1459 1463 1466 1455 1452 1455 1459 1463 1460 1462 1464 1467 1469 1469 1471 1476 1479 1481 1485 1487 1490 1492 1495 1498 1500 1503 1506 1509 1511 1513 1515 1517 1519 1521 1522 1524 1525 1526 1527 1528 1529 1530 1530 1531
1456 1458 1451 1449 1452 1455 1465 1462 1459 1461 1464 1466 1468 1469 1472 1474 1477 1480 1482 1485 1487 1490 1492 1495 1497 1500 1503 1505 1508 1510 1512 1515 1517 1518 1519 1521 1522 1523 1524 1525 1526 1527 1528 1528
1453 1456 1455 1452 1452 1454 1457 1459 1460 1462 1464 1466 1468 1470 1472 1474 1476 1478 1480 1482 1485 1487 1489 1492 1494 1497 1499 1502 1504 1507 1509 1511 1513 1515 1517 1518 1518 1519 1520 1522 1523 1524 1524 1525
1448 1451 1453 1454 1454 1457 1459 1460 1461 1462 1464 1466 1467 1469 1472 1473 1475 1476 1478 1481 1483 1485 1487 1489 1491 1494 1496 1499 1501 1504 1506 1508 1510 1512 1513 1514 1515 1516 1517 1518 1520 1521 1522 1522
1451 1451 1453 1455 1456 1458 1459 1461 1461 1462 1463 1465 1466 1468 1470 1472 1473 1475 1477 1479 1481 1483 1485 1487 1489 1491 1493 1496 1498 1500 1502 1504 1506 1509 1510 1511 1512 1513 1514 1515 1516 1517 1518 1519
1451 1453 1454 1456 1457 1458 1459 1460 1461 1462 1463 1464 1465 1466 1468 1469 1471 1473 1475 1478 1480 1481 1482 1483 1485 1488 1490 1492 1495 1497 1499 1501 1503 1505 1507 1508 1508 1509 1510 1511 1513 1513 1514 1515
1448 1452 1453 1455 1457 1458 1459 1460 1460 1461 1462 1463 1464 1465 1467 1468 1469 1471 1474 1476 1477 1479 1480 1482 1483 1485 1487 1489 1491 1493 1495 1497 1500 1501 1503 1504 1505 1505 1505 1507 1507 1508 1509 1510
1452 1453 1454 1455 1456 1457 1458 1459 1460 1461 1461 1462 1463 1464 1465 1467 1468 1470 1472 1474 1475 1477 1479 1480 1481 1483 1484 1486 1488 1489 1491 1493 1496 1497 1499 1500 1501 1501 1502 1503 1503 1504 1504 1505
1452 1453 1453 1454 1455 1456 1457 1458 1459 1460 1461 1462 1463 1464 1464 1465 1467 1469 1470 1472 1474 1475 1477 1478 1479 1480 1481 1482 1484 1486 1488 1490 1492 1493 1495 1495 1496 1497 1498 1499 1499 1499 1500 1500
1451 1452 1452 1453 1454 1455 1456 1457 1458 1459 1460 1461 1462 1463 1464 1465 1466 1467 1469 1471 1473 1474 1475 1476 1477 1477 1478 1480 1481 1483 1485 1486 1488 1489 1490 1491 1492 1493 1494 1495 1495 1495 1496 1496
1449 1450 1451 1452 1453 1454 1455 1456 1457 1458 1460 1460 1462 1463 1464 1465 1466 1467 1468 1470 1471 1472 1473 1474 1474 1474 1475 1477 1478 1480 1481 1482 1484 1485 1486 1487 1488 1489 1490 1490 1491 1491 1492 1492
1448 1448 1450 1451 1452 1453 1455 1456 1457 1458 1459 1460 1461 1462 1463 1464 1465 1467 1468 1469 1470 1470 1471 1471 1471 1472 1473 1474 1475 1477 1478 1479 1480 1482 1483 1483 1484 1484 1485 1486 1486 1487 1487 1487
1447 1448 1449 1450 1451 1453 1454 1456 1457 1458 1459 1460 1461 1462 1463 1464 1465 1466 1466 1467 1468 1468 1468 1469 1469 1469 1469 1471 1471 1474 1475 1476 1477 1478 1479 1479 1480 1480 1481 1481 1481 1482 1482 1481
1446 1447 1448 1450 1451 1452 1453 1455 1456 1457 1458 1460 1461 1461 1462 1463 1464 1464 1465 1465 1465 1465 1466 1466 1466 1466 1467 1467 1468 1470 1472 1473 1474 1475 1476 1476 1476 1476 1477 1477 1477 1477 1477 1477
1446 1447 1448 1449 1450 1451 1452 1454 1455 1457 1458 1459 1460 1461 1462 1462 1463 1463 1464 1464 1464 1465 1465 1465 1464 1464 1465 1466 1467 1468 1469 1470 1472 1472 1473 1473 1473 1473 1473 1472 1472 1472 1472 1472
1446 1446 1447 1448 1449 1450 1452 1453 1455 1456 1457 1458 1459 1460 1460 1461 1462 1462 1462 1462 1462 1462 1462 1461 1462 1462 1463 1464 1465 1466 1467 1467 1468 1469 1470 1470 1470 1469 1468 1468 1468 1468 1468 1468
1446 1446 1447 1448 1449 1450 1451 1452 1454 1455 1456 1457 1458 1458 1458 1459 1460 1460 1460 1460 1459 1459 1459 1459 1459 1460 1461 1461 1463 1464 1464 1464 1465 1466 1466 1466 1465 1464 1464 1464 1464 1464 1463 1463
1445 1446 1447 1448 1448 1449 1450 1452 1454 1454 1455 1455 1456 1456 1457 1458 1458 1458 1458 1458 1458 1458 1457 1457 1457 1457 1457 1459 1459 1460 1461 1460 1461 1461 1461 1461 1461 1460 1460 1459 1459 1459 1459 1458
1445 1446 1447 1447 1448 1449 1450 1451 1452 1453 1453 1453 1454 1454 1455 1455 1455 1456 1455 1455 1455 1455 1455 1454 1454 1454 1455 1455 1456 1455 1456 1457 1457 1458 1457 1456 1456 1456 1456 1455 1455 1454 1454 1453
1445 1445 1446 1447 1448 1448 1449 1450 1450 1451 1451 1452 1452 1453 1453 1453 1453 1453 1453 1453 1452 1452 1452 1452 1451 1451 1452 1452 1452 1452 1453 1453 1453 1453 1452 1452 1452 1452 1451 1450 1450 1449 1449 1448
1444 1445 1445 1446 1447 1447 1448 1449 1449 1450 1450 1450 1451 1451 1451 1451 1451 1451 1451 1451 1450 1449 1449 1449 1449 1449 1449 1449 1449 1449 1449 1449 1448 1448 1447 1447 1447 1447 1446 1445 1445 1444 1444 1443
1443 1444 1445 1445 1446 1446 1447 1448 1448 1449 1449 1449 1449 1450 1449 1449 1449 1449 1449 1448 1448 1447 1447 1447 1447 1446 1446 1446 1446 1445 1445 1444 1444 1443 1443 1443 1442 1442 1441 1440 1440 1439 1439 1438